Flag for U.S.A. Weather past 2 weeks in Casper, Wyoming, U.S.A.

Now
25 °F

Sunny.


Feels Like: 10 °F
Forecast: 20 / 36 °F
Wind: 22 mph from Southwest

Location: Natrona County International Airport

Current Time: Dec 19, 2014 at 10:01:32 AM

Latest Report: Dec 19, 2014 at 8:53 AM


Visibility: 10 mi

Pressure: 30.15 "Hg

Humidity: 69%

Dew point: 16 °F

Location of CasperLocation

Historic Weather in Casper — Graph

°F

Casper temperature yesterday

Maximum temperature yesterday: 29 °F (at 12:53 PM)
Minimum temperature yesterday: 18 °F (at 4:53 AM)
Average temperature yesterday: 23 °F

Past Weeks' High & Low Weather Summary

 TemperatureHumidityPressure
High59 °F (Dec 12, 1:53 PM)96% (Dec 15, 1:53 AM)30.35 "Hg (Dec 15, 1:53 AM)
Low7 °F (Dec 16, 6:53 AM)21% (Dec 11, 11:53 AM)29.66 "Hg (Dec 13, 2:53 PM)
Average36 °F61%30.08 "Hg
* Reported Dec 4 8:53 AM — Dec 19 8:53 AM, Casper, Weather by CustomWeather, © 2014

Note: Actual official high and low records may vary slightly from our data, if they occured in-between our weather recording intervals... More about our weather records

Advertising

Casper weather history for previous 24 hours

 ConditionsComfort  
Time TempWeatherWind HumidityBarometerVisibility
8:53 AM
Dec 19
25 °FSunny.22 mph69%30.15 "Hg10 mi
7:53 AM23 °FSunny.18 mph72%30.16 "Hg10 mi
6:53 AM23 °FClear.18 mph72%30.17 "Hg10 mi
5:53 AM22 °FClear.10 mph75%30.17 "Hg10 mi
4:53 AM23 °FClear.14 mph72%30.16 "Hg10 mi
3:53 AM23 °FClear.14 mph72%30.15 "Hg10 mi
2:53 AM23 °FClear.14 mph72%30.14 "Hg10 mi
1:53 AM23 °FClear.18 mph72%30.14 "Hg10 mi
12:53 AM22 °FClear.12 mph72%30.14 "Hg10 mi
11:53 PM
Dec 18
23 °FClear.13 mph72%30.15 "Hg10 mi
10:53 PM23 °FClear.16 mph74%30.16 "Hg10 mi
9:53 PM22 °FClear.12 mph78%30.17 "Hg10 mi
8:53 PM22 °FClear.8 mph75%30.17 "Hg10 mi
7:53 PM22 °FClear.15 mph78%30.19 "Hg10 mi
6:53 PM21 °FClear.12 mph78%30.19 "Hg10 mi
5:53 PM19 °FClear.12 mph81%30.19 "Hg10 mi
4:53 PM22 °FClear.12 mph75%30.18 "Hg10 mi
3:53 PM26 °FSunny.12 mph69%30.14 "Hg10 mi
2:53 PM27 °FSunny.21 mph69%30.13 "Hg10 mi
1:53 PM28 °FSunny.16 mph69%30.12 "Hg10 mi
12:53 PM29 °FSunny.14 mph69%30.13 "Hg10 mi
11:53 AM28 °FSunny.20 mph69%30.14 "Hg10 mi
10:53 AM27 °FSunny.15 mph66%30.17 "Hg10 mi
Weather by CustomWeather, © 2014

See weather overviewHow to use our weather pages